Year,Month,Day,Hour,Minute,Value (Times are PST for temperature in C)
2008,05,25,00,00,17.40
2008,05,25,00,01,17.40
2008,05,25,00,02,17.40
2008,05,25,00,03,17.40
2008,05,25,00,04,17.40
2008,05,25,00,05,17.30
2008,05,25,00,06,17.30
2008,05,25,00,07,17.30
2008,05,25,00,08,17.20
2008,05,25,00,09,17.20
2008,05,25,00,10,17.10
2008,05,25,00,11,17.10
2008,05,25,00,12,17.10
2008,05,25,00,13,17.00
2008,05,25,00,14,17.00
2008,05,25,00,15,17.00
2008,05,25,00,16,16.90
2008,05,25,00,17,16.90
2008,05,25,00,18,16.90
2008,05,25,00,19,16.90
2008,05,25,00,20,16.90
2008,05,25,00,21,16.90
2008,05,25,00,22,16.90
2008,05,25,00,23,16.90
2008,05,25,00,24,16.80
2008,05,25,00,25,16.80
2008,05,25,00,26,16.80
2008,05,25,00,27,16.80
2008,05,25,00,28,16.80
2008,05,25,00,29,16.80
2008,05,25,00,30,16.70
2008,05,25,00,31,16.70
2008,05,25,00,32,16.70
2008,05,25,00,33,16.70
2008,05,25,00,34,16.60
2008,05,25,00,35,16.60
2008,05,25,00,36,16.50
2008,05,25,00,37,16.50
2008,05,25,00,38,16.40
2008,05,25,00,39,16.40
2008,05,25,00,40,16.40
2008,05,25,00,41,16.40
2008,05,25,00,42,16.30
2008,05,25,00,43,16.30
2008,05,25,00,44,16.30
2008,05,25,00,45,16.30
2008,05,25,00,46,16.30
2008,05,25,00,47,16.30
2008,05,25,00,48,16.30
2008,05,25,00,49,16.20
2008,05,25,00,50,16.20
2008,05,25,00,51,16.20
2008,05,25,00,52,16.20
2008,05,25,00,53,16.20
2008,05,25,00,54,16.20
2008,05,25,00,55,16.20
2008,05,25,00,56,16.20
2008,05,25,00,57,16.20
2008,05,25,00,58,16.20
2008,05,25,00,59,16.20
2008,05,25,01,00,16.20
2008,05,25,01,01,16.20
2008,05,25,01,02,16.20
2008,05,25,01,03,16.20
2008,05,25,01,04,16.20
2008,05,25,01,05,16.20
2008,05,25,01,06,16.10
2008,05,25,01,07,16.10
2008,05,25,01,08,16.10
2008,05,25,01,09,16.00
2008,05,25,01,10,16.00
2008,05,25,01,11,15.90
2008,05,25,01,12,15.90
2008,05,25,01,13,15.90
2008,05,25,01,14,15.90
2008,05,25,01,15,15.90
2008,05,25,01,16,15.90
2008,05,25,01,17,15.90
2008,05,25,01,18,15.80
2008,05,25,01,19,15.80
2008,05,25,01,20,15.80
2008,05,25,01,21,15.80
2008,05,25,01,22,15.80
2008,05,25,01,23,15.80
2008,05,25,01,24,15.70
2008,05,25,01,25,15.70
2008,05,25,01,26,15.80
2008,05,25,01,27,15.80
2008,05,25,01,28,15.80
2008,05,25,01,29,15.90
2008,05,25,01,30,15.90
2008,05,25,01,31,15.90
2008,05,25,01,32,15.90
2008,05,25,01,33,15.90
2008,05,25,01,34,15.90
2008,05,25,01,35,15.90
2008,05,25,01,36,15.90
2008,05,25,01,37,15.90
2008,05,25,01,38,15.90
2008,05,25,01,39,15.90
2008,05,25,01,40,15.90
2008,05,25,01,41,15.90
2008,05,25,01,42,15.80
2008,05,25,01,43,15.80
2008,05,25,01,44,15.80
2008,05,25,01,45,15.80
2008,05,25,01,46,15.90
2008,05,25,01,47,15.80
2008,05,25,01,48,15.90
2008,05,25,01,49,15.90
2008,05,25,01,50,15.90
2008,05,25,01,51,15.90
2008,05,25,01,52,15.90
2008,05,25,01,53,16.00
2008,05,25,01,54,16.00
2008,05,25,01,55,16.00
2008,05,25,01,56,16.00
2008,05,25,01,57,16.00
2008,05,25,01,58,16.10
2008,05,25,01,59,16.10
2008,05,25,02,00,16.10
2008,05,25,02,01,16.20
2008,05,25,02,02,16.20
2008,05,25,02,03,16.20
2008,05,25,02,04,16.20
2008,05,25,02,05,16.20
2008,05,25,02,06,16.20
2008,05,25,02,07,16.20
2008,05,25,02,08,16.20
2008,05,25,02,09,16.20
2008,05,25,02,10,16.20
2008,05,25,02,11,16.20
2008,05,25,02,12,16.10
2008,05,25,02,13,16.00
2008,05,25,02,14,15.90
2008,05,25,02,15,15.80
2008,05,25,02,16,15.80
2008,05,25,02,17,15.80
2008,05,25,02,18,15.70
2008,05,25,02,19,15.70
2008,05,25,02,20,15.70
2008,05,25,02,21,15.70
2008,05,25,02,22,15.80
2008,05,25,02,23,15.90
2008,05,25,02,24,15.90
2008,05,25,02,25,15.90
2008,05,25,02,26,16.00
2008,05,25,02,27,16.00
2008,05,25,02,28,16.10
2008,05,25,02,29,16.10
2008,05,25,02,30,16.10
2008,05,25,02,31,16.10
2008,05,25,02,32,16.10
2008,05,25,02,33,16.10
2008,05,25,02,34,16.10
2008,05,25,02,35,16.10
2008,05,25,02,36,16.10
2008,05,25,02,37,16.10
2008,05,25,02,38,16.10
2008,05,25,02,39,16.20
2008,05,25,02,40,16.20
2008,05,25,02,41,16.20
2008,05,25,02,42,16.20
2008,05,25,02,43,16.20
2008,05,25,02,44,16.20
2008,05,25,02,45,16.20
2008,05,25,02,46,16.20
2008,05,25,02,47,16.20
2008,05,25,02,48,16.30
2008,05,25,02,49,16.30
2008,05,25,02,50,16.30
2008,05,25,02,51,16.30
2008,05,25,02,52,16.30
2008,05,25,02,53,16.30
2008,05,25,02,54,16.40
2008,05,25,02,55,16.40
2008,05,25,02,56,16.50
2008,05,25,02,57,16.50
2008,05,25,02,58,16.50
2008,05,25,02,59,16.50
2008,05,25,03,00,16.60
2008,05,25,03,01,16.60
2008,05,25,03,02,16.60
2008,05,25,03,03,16.60
2008,05,25,03,04,16.70
2008,05,25,03,05,16.70
2008,05,25,03,06,16.80
2008,05,25,03,07,16.80
2008,05,25,03,08,16.80
2008,05,25,03,09,16.80
2008,05,25,03,10,16.90
2008,05,25,03,11,16.90
2008,05,25,03,12,16.90
2008,05,25,03,13,16.80
2008,05,25,03,14,16.80
2008,05,25,03,15,16.80
2008,05,25,03,16,16.80
2008,05,25,03,17,16.80
2008,05,25,03,18,16.70
2008,05,25,03,19,16.70
2008,05,25,03,20,16.70
2008,05,25,03,21,16.70
2008,05,25,03,22,16.70
2008,05,25,03,23,16.70
2008,05,25,03,24,16.70
2008,05,25,03,25,16.70
2008,05,25,03,26,16.80
2008,05,25,03,27,16.80
2008,05,25,03,28,16.80
2008,05,25,03,29,16.80
2008,05,25,03,30,16.70
2008,05,25,03,31,16.80
2008,05,25,03,32,16.80
2008,05,25,03,33,16.80
2008,05,25,03,34,16.80
2008,05,25,03,35,16.80
2008,05,25,03,36,16.80
2008,05,25,03,37,16.80
2008,05,25,03,38,16.80
2008,05,25,03,39,16.80
2008,05,25,03,40,16.80
2008,05,25,03,41,16.80
2008,05,25,03,42,16.80
2008,05,25,03,43,16.80
2008,05,25,03,44,16.80
2008,05,25,03,45,16.80
2008,05,25,03,46,16.80
2008,05,25,03,47,16.80
2008,05,25,03,48,16.80
2008,05,25,03,49,16.80
2008,05,25,03,50,16.80
2008,05,25,03,51,16.80
2008,05,25,03,52,16.80
2008,05,25,03,53,16.80
2008,05,25,03,54,16.70
2008,05,25,03,55,16.70
2008,05,25,03,56,16.70
2008,05,25,03,57,16.60
2008,05,25,03,58,16.60
2008,05,25,03,59,16.60
2008,05,25,04,00,16.50
2008,05,25,04,01,16.50
2008,05,25,04,02,16.50
2008,05,25,04,03,16.50
2008,05,25,04,04,16.40
2008,05,25,04,05,16.40
2008,05,25,04,06,16.40
2008,05,25,04,07,16.40
2008,05,25,04,08,16.40
2008,05,25,04,09,16.40
2008,05,25,04,10,16.30
2008,05,25,04,11,16.30
2008,05,25,04,12,16.30
2008,05,25,04,13,16.30
2008,05,25,04,14,16.30
2008,05,25,04,15,16.30
2008,05,25,04,16,16.30
2008,05,25,04,17,16.30
2008,05,25,04,18,16.40
2008,05,25,04,19,16.40
2008,05,25,04,20,16.40
2008,05,25,04,21,16.40
2008,05,25,04,22,16.40
2008,05,25,04,23,16.50
2008,05,25,04,24,16.50
2008,05,25,04,25,16.60
2008,05,25,04,26,16.60
2008,05,25,04,27,16.60
2008,05,25,04,28,16.60
2008,05,25,04,29,16.60
2008,05,25,04,30,16.60
2008,05,25,04,31,16.60
2008,05,25,04,32,16.60
2008,05,25,04,33,16.60
2008,05,25,04,34,16.60
2008,05,25,04,35,16.60
2008,05,25,04,36,16.60
2008,05,25,04,37,16.60
2008,05,25,04,38,16.60
2008,05,25,04,39,16.60
2008,05,25,04,40,16.60
2008,05,25,04,41,16.60
2008,05,25,04,42,16.60
2008,05,25,04,43,16.70
2008,05,25,04,44,16.70
2008,05,25,04,45,16.80
2008,05,25,04,46,16.80
2008,05,25,04,47,16.80
2008,05,25,04,48,16.80
2008,05,25,04,49,16.90
2008,05,25,04,50,16.90
2008,05,25,04,51,16.90
2008,05,25,04,52,17.00
2008,05,25,04,53,17.00
2008,05,25,04,54,17.00
2008,05,25,04,55,17.00
2008,05,25,04,56,17.00
2008,05,25,04,57,17.00
2008,05,25,04,58,17.00
2008,05,25,04,59,17.00
2008,05,25,05,00,17.00
2008,05,25,05,01,16.90
2008,05,25,05,02,16.90
2008,05,25,05,03,16.90
2008,05,25,05,04,16.90
2008,05,25,05,05,16.90
2008,05,25,05,06,16.90
2008,05,25,05,07,16.90
2008,05,25,05,08,17.00
2008,05,25,05,09,17.00
2008,05,25,05,10,17.00
2008,05,25,05,11,17.00
2008,05,25,05,12,17.00
2008,05,25,05,13,16.90
2008,05,25,05,14,16.90
2008,05,25,05,15,16.90
2008,05,25,05,16,17.00
2008,05,25,05,17,17.00
2008,05,25,05,18,17.00
2008,05,25,05,19,17.00
2008,05,25,05,20,17.00
2008,05,25,05,21,16.90
2008,05,25,05,22,16.90
2008,05,25,05,23,16.90
2008,05,25,05,24,16.90
2008,05,25,05,25,16.90
2008,05,25,05,26,16.90
2008,05,25,05,27,16.80
2008,05,25,05,28,16.80
2008,05,25,05,29,16.70
2008,05,25,05,30,16.60
2008,05,25,05,31,16.50
2008,05,25,05,32,16.40
2008,05,25,05,33,16.40
2008,05,25,05,34,16.30
2008,05,25,05,35,16.30
2008,05,25,05,36,16.20
2008,05,25,05,37,16.20
2008,05,25,05,38,16.10
2008,05,25,05,39,16.00
2008,05,25,05,40,15.90
2008,05,25,05,41,15.90
2008,05,25,05,42,15.80
2008,05,25,05,43,15.80
2008,05,25,05,44,15.80
2008,05,25,05,45,15.70
2008,05,25,05,46,15.70
2008,05,25,05,47,15.70
2008,05,25,05,48,15.60
2008,05,25,05,49,15.60
2008,05,25,05,50,15.60
2008,05,25,05,51,15.60
2008,05,25,05,52,15.60
2008,05,25,05,53,15.50
2008,05,25,05,54,15.50
2008,05,25,05,55,15.50
2008,05,25,05,56,15.50
2008,05,25,05,57,15.50
2008,05,25,05,58,15.50
2008,05,25,05,59,15.50
2008,05,25,06,00,15.50
2008,05,25,06,01,15.40
2008,05,25,06,02,15.40
2008,05,25,06,03,15.40
2008,05,25,06,04,15.40
2008,05,25,06,05,15.40
2008,05,25,06,06,15.40
2008,05,25,06,07,15.40
2008,05,25,06,08,15.40
2008,05,25,06,09,15.40
2008,05,25,06,10,15.30
2008,05,25,06,11,15.30
2008,05,25,06,12,15.30
2008,05,25,06,13,15.30
2008,05,25,06,14,15.30
2008,05,25,06,15,15.30
2008,05,25,06,16,15.40
2008,05,25,06,17,15.40
2008,05,25,06,18,15.40
2008,05,25,06,19,15.40
2008,05,25,06,20,15.40
2008,05,25,06,21,15.40
2008,05,25,06,22,15.50
2008,05,25,06,23,15.50
2008,05,25,06,24,15.50
2008,05,25,06,25,15.60
2008,05,25,06,26,15.60
2008,05,25,06,27,15.60
2008,05,25,06,28,15.60
2008,05,25,06,29,15.50
2008,05,25,06,30,15.50
2008,05,25,06,31,15.50
2008,05,25,06,32,15.40
2008,05,25,06,33,15.40
2008,05,25,06,34,15.40
2008,05,25,06,35,15.40
2008,05,25,06,36,15.40
2008,05,25,06,37,15.30
2008,05,25,06,38,15.30
2008,05,25,06,39,15.30
2008,05,25,06,40,15.30
2008,05,25,06,41,15.30
2008,05,25,06,42,15.30
2008,05,25,06,43,15.30
2008,05,25,06,44,15.30
2008,05,25,06,45,15.30
2008,05,25,06,46,15.30
2008,05,25,06,47,15.30
2008,05,25,06,48,15.40
2008,05,25,06,49,15.40
2008,05,25,06,50,15.40
2008,05,25,06,51,15.40
2008,05,25,06,52,15.40
2008,05,25,06,53,15.40
2008,05,25,06,54,15.40
2008,05,25,06,55,15.40
2008,05,25,06,56,15.40
2008,05,25,06,57,15.40
2008,05,25,06,58,15.40
2008,05,25,06,59,15.40
2008,05,25,07,00,15.40
2008,05,25,07,01,15.40
2008,05,25,07,02,15.40
2008,05,25,07,03,15.40
2008,05,25,07,04,15.40
2008,05,25,07,05,15.40
2008,05,25,07,06,15.40
2008,05,25,07,07,15.40
2008,05,25,07,08,15.40
2008,05,25,07,09,15.40
2008,05,25,07,10,15.40
2008,05,25,07,11,15.40
2008,05,25,07,12,15.40
2008,05,25,07,13,15.40
2008,05,25,07,14,15.40
2008,05,25,07,15,15.40
2008,05,25,07,16,15.40
2008,05,25,07,17,15.40
2008,05,25,07,18,15.40
2008,05,25,07,19,15.40
2008,05,25,07,20,15.40
2008,05,25,07,21,15.40
2008,05,25,07,22,15.40
2008,05,25,07,23,15.40
2008,05,25,07,24,15.40
2008,05,25,07,25,15.40
2008,05,25,07,26,15.40
2008,05,25,07,27,15.40
2008,05,25,07,28,15.40
2008,05,25,07,29,15.40
2008,05,25,07,30,15.40
2008,05,25,07,31,15.40
2008,05,25,07,32,15.40
2008,05,25,07,33,15.40
2008,05,25,07,34,15.40
2008,05,25,07,35,15.40
2008,05,25,07,36,15.40
2008,05,25,07,37,15.40
2008,05,25,07,38,15.40
2008,05,25,07,39,15.40
2008,05,25,07,40,15.40
2008,05,25,07,41,15.50
2008,05,25,07,42,15.50
2008,05,25,07,43,15.50
2008,05,25,07,44,15.50
2008,05,25,07,45,15.50
2008,05,25,07,46,15.50
2008,05,25,07,47,15.50
2008,05,25,07,48,15.60
2008,05,25,07,49,15.60
2008,05,25,07,50,15.60
2008,05,25,07,51,15.60
2008,05,25,07,52,15.60
2008,05,25,07,53,15.60
2008,05,25,07,54,15.60
2008,05,25,07,55,15.70
2008,05,25,07,56,15.70
2008,05,25,07,57,15.70
2008,05,25,07,58,15.70
2008,05,25,07,59,15.70
2008,05,25,08,00,15.70
2008,05,25,08,01,15.70
2008,05,25,08,02,15.80
2008,05,25,08,03,15.80
2008,05,25,08,04,15.80
2008,05,25,08,05,15.80
2008,05,25,08,06,15.80
2008,05,25,08,07,15.80
2008,05,25,08,08,15.80
2008,05,25,08,09,15.90
2008,05,25,08,10,15.90
2008,05,25,08,11,15.90
2008,05,25,08,12,15.90
2008,05,25,08,13,16.00
2008,05,25,08,14,16.00
2008,05,25,08,15,16.00
2008,05,25,08,16,16.10
2008,05,25,08,17,16.10
2008,05,25,08,18,16.10
2008,05,25,08,19,16.10
2008,05,25,08,20,16.10
2008,05,25,08,21,16.00
2008,05,25,08,22,16.00
2008,05,25,08,23,15.90
2008,05,25,08,24,15.80
2008,05,25,08,25,15.80
2008,05,25,08,26,15.70
2008,05,25,08,27,15.70
2008,05,25,08,28,15.70
2008,05,25,08,29,15.60
2008,05,25,08,30,15.60
2008,05,25,08,31,15.60
2008,05,25,08,32,15.60
2008,05,25,08,33,15.60
2008,05,25,08,34,15.60
2008,05,25,08,35,15.70
2008,05,25,08,36,15.70
2008,05,25,08,37,15.70
2008,05,25,08,38,15.80
2008,05,25,08,39,15.80
2008,05,25,08,40,15.80
2008,05,25,08,41,15.80
2008,05,25,08,42,15.80
2008,05,25,08,43,15.90
2008,05,25,08,44,15.90
2008,05,25,08,45,16.00
2008,05,25,08,46,16.00
2008,05,25,08,47,16.00
2008,05,25,08,48,16.10
2008,05,25,08,49,16.10
2008,05,25,08,50,16.10
2008,05,25,08,51,16.10
2008,05,25,08,52,16.10
2008,05,25,08,53,16.10
2008,05,25,08,54,16.10
2008,05,25,08,55,16.10
2008,05,25,08,56,16.10
2008,05,25,08,57,16.10
2008,05,25,08,58,16.10
2008,05,25,08,59,16.10
2008,05,25,09,00,16.10
2008,05,25,09,01,16.10
2008,05,25,09,02,16.10
2008,05,25,09,03,16.10
2008,05,25,09,04,16.20
2008,05,25,09,05,16.20
2008,05,25,09,06,16.20
2008,05,25,09,07,16.30
2008,05,25,09,08,16.30
2008,05,25,09,09,16.30
2008,05,25,09,10,16.40
2008,05,25,09,11,16.40
2008,05,25,09,12,16.50
2008,05,25,09,13,16.50
2008,05,25,09,14,16.60
2008,05,25,09,15,16.60
2008,05,25,09,16,16.60
2008,05,25,09,17,16.60
2008,05,25,09,18,16.60
2008,05,25,09,19,16.60
2008,05,25,09,20,16.60
2008,05,25,09,21,16.60
2008,05,25,09,22,16.60
2008,05,25,09,23,16.60
2008,05,25,09,24,16.70
2008,05,25,09,25,16.70
2008,05,25,09,26,16.70
2008,05,25,09,27,16.70
2008,05,25,09,28,16.70
2008,05,25,09,29,16.60
2008,05,25,09,30,16.60
2008,05,25,09,31,16.60
2008,05,25,09,32,16.60
2008,05,25,09,33,16.60
2008,05,25,09,34,16.60
2008,05,25,09,35,16.60
2008,05,25,09,36,16.60
2008,05,25,09,37,16.60
2008,05,25,09,38,16.60
2008,05,25,09,39,16.60
2008,05,25,09,40,16.60
2008,05,25,09,41,16.60
2008,05,25,09,42,16.60
2008,05,25,09,43,16.60
2008,05,25,09,44,16.60
2008,05,25,09,45,16.60
2008,05,25,09,46,16.60
2008,05,25,09,47,16.60
2008,05,25,09,48,16.50
2008,05,25,09,49,16.50
2008,05,25,09,50,16.50
2008,05,25,09,51,16.50
2008,05,25,09,52,16.50
2008,05,25,09,53,16.50
2008,05,25,09,54,16.60
2008,05,25,09,55,16.60
2008,05,25,09,56,16.70
2008,05,25,09,57,16.80
2008,05,25,09,58,16.80
2008,05,25,09,59,16.90
2008,05,25,10,00,17.00
2008,05,25,10,01,17.10
2008,05,25,10,02,17.20
2008,05,25,10,03,17.20
2008,05,25,10,04,17.30
2008,05,25,10,05,17.40
2008,05,25,10,06,17.50
2008,05,25,10,07,17.60
2008,05,25,10,08,17.70
2008,05,25,10,09,17.70
2008,05,25,10,10,17.80
2008,05,25,10,11,17.80
2008,05,25,10,12,17.90
2008,05,25,10,13,18.00
2008,05,25,10,14,18.10
2008,05,25,10,15,18.20
2008,05,25,10,16,18.30
2008,05,25,10,17,18.40
2008,05,25,10,18,18.50
2008,05,25,10,19,18.60
2008,05,25,10,20,18.70
2008,05,25,10,21,18.80
2008,05,25,10,22,18.80
2008,05,25,10,23,18.90
2008,05,25,10,24,19.00
2008,05,25,10,25,19.10
2008,05,25,10,26,19.00
2008,05,25,10,27,18.90
2008,05,25,10,28,18.90
2008,05,25,10,29,18.90
2008,05,25,10,30,18.90
2008,05,25,10,31,18.90
2008,05,25,10,32,18.90
2008,05,25,10,33,18.90
2008,05,25,10,34,18.90
2008,05,25,10,35,18.90
2008,05,25,10,36,18.90
2008,05,25,10,37,18.80
2008,05,25,10,38,18.70
2008,05,25,10,39,18.60
2008,05,25,10,40,18.60
2008,05,25,10,41,18.60
2008,05,25,10,42,18.50
2008,05,25,10,43,18.50
2008,05,25,10,44,18.50
2008,05,25,10,45,18.40
2008,05,25,10,46,18.40
2008,05,25,10,47,18.40
2008,05,25,10,48,18.40
2008,05,25,10,49,18.30
2008,05,25,10,50,18.30
2008,05,25,10,51,18.30
2008,05,25,10,52,18.40
2008,05,25,10,53,18.40
2008,05,25,10,54,18.50
2008,05,25,10,55,18.60
2008,05,25,10,56,18.70
2008,05,25,10,57,18.90
2008,05,25,10,58,19.00
2008,05,25,10,59,19.10
2008,05,25,11,00,19.10
2008,05,25,11,01,19.00
2008,05,25,11,02,19.00
2008,05,25,11,03,18.90
2008,05,25,11,04,18.90
2008,05,25,11,05,18.90
2008,05,25,11,06,18.80
2008,05,25,11,07,18.70
2008,05,25,11,08,18.70
2008,05,25,11,09,18.70
2008,05,25,11,10,18.70
2008,05,25,11,11,18.80
2008,05,25,11,12,18.80
2008,05,25,11,13,18.90
2008,05,25,11,14,19.00
2008,05,25,11,15,19.00
2008,05,25,11,16,19.10
2008,05,25,11,17,19.10
2008,05,25,11,18,19.20
2008,05,25,11,19,19.20
2008,05,25,11,20,19.40
2008,05,25,11,21,19.50
2008,05,25,11,22,19.60
2008,05,25,11,23,19.70
2008,05,25,11,24,19.90
2008,05,25,11,25,20.10
2008,05,25,11,26,20.30
2008,05,25,11,27,20.50
2008,05,25,11,28,20.70
2008,05,25,11,29,20.80
2008,05,25,11,30,21.00
2008,05,25,11,31,21.10
2008,05,25,11,32,21.10
2008,05,25,11,33,21.00
2008,05,25,11,34,20.90
2008,05,25,11,35,20.80
2008,05,25,11,36,20.80
2008,05,25,11,37,20.80
2008,05,25,11,38,20.90
2008,05,25,11,39,21.00
2008,05,25,11,40,21.20
2008,05,25,11,41,21.30
2008,05,25,11,42,21.40
2008,05,25,11,43,21.50
2008,05,25,11,44,21.60
2008,05,25,11,45,21.70
2008,05,25,11,46,21.80
2008,05,25,11,47,21.80
2008,05,25,11,48,21.80
2008,05,25,11,49,21.80
2008,05,25,11,50,21.80
2008,05,25,11,51,21.80
2008,05,25,11,52,21.80
2008,05,25,11,53,21.70
2008,05,25,11,54,21.40
2008,05,25,11,55,21.20
2008,05,25,11,56,21.20
2008,05,25,11,57,21.10
2008,05,25,11,58,21.00
2008,05,25,11,59,20.80
2008,05,25,12,00,20.70
2008,05,25,12,01,20.50
2008,05,25,12,02,20.30
2008,05,25,12,03,20.10
2008,05,25,12,04,20.00
2008,05,25,12,05,20.00
2008,05,25,12,06,19.90
2008,05,25,12,07,19.90
2008,05,25,12,08,19.80
2008,05,25,12,09,19.90
2008,05,25,12,10,20.00
2008,05,25,12,11,20.10
2008,05,25,12,12,20.20
2008,05,25,12,13,20.30
2008,05,25,12,14,20.50
2008,05,25,12,15,20.70
2008,05,25,12,16,21.00
2008,05,25,12,17,21.20
2008,05,25,12,18,21.40
2008,05,25,12,19,21.70
2008,05,25,12,20,21.90
2008,05,25,12,21,22.00
2008,05,25,12,22,22.10
2008,05,25,12,23,21.90
2008,05,25,12,24,21.70
2008,05,25,12,25,21.50
2008,05,25,12,26,21.50
2008,05,25,12,27,21.60
2008,05,25,12,28,21.60
2008,05,25,12,29,21.60
2008,05,25,12,30,21.60
2008,05,25,12,31,21.60
2008,05,25,12,32,21.70
2008,05,25,12,33,21.70
2008,05,25,12,34,21.60
2008,05,25,12,35,21.50
2008,05,25,12,36,21.40
2008,05,25,12,37,21.40
2008,05,25,12,38,21.30
2008,05,25,12,39,21.30
2008,05,25,12,40,21.30
2008,05,25,12,41,21.30
2008,05,25,12,42,21.40
2008,05,25,12,43,21.60
2008,05,25,12,44,21.70
2008,05,25,12,45,21.80
2008,05,25,12,46,21.90
2008,05,25,12,47,22.10
2008,05,25,12,48,22.20
2008,05,25,12,49,22.30
2008,05,25,12,50,22.40
2008,05,25,12,51,22.40
2008,05,25,12,52,22.50
2008,05,25,12,53,22.60
2008,05,25,12,54,22.70
2008,05,25,12,55,22.70
2008,05,25,12,56,22.80
2008,05,25,12,57,22.90
2008,05,25,12,58,23.00
2008,05,25,12,59,23.00
2008,05,25,13,00,23.00
2008,05,25,13,01,23.00
2008,05,25,13,02,23.00
2008,05,25,13,03,23.00
2008,05,25,13,04,22.90
2008,05,25,13,05,22.90
2008,05,25,13,06,22.80
2008,05,25,13,07,22.70
2008,05,25,13,08,22.50
2008,05,25,13,09,22.30
2008,05,25,13,10,22.30
2008,05,25,13,11,22.20
2008,05,25,13,12,22.10
2008,05,25,13,13,22.00
2008,05,25,13,14,21.90
2008,05,25,13,15,21.80
2008,05,25,13,16,21.60
2008,05,25,13,17,21.40
2008,05,25,13,18,21.30
2008,05,25,13,19,21.30
2008,05,25,13,20,21.30
2008,05,25,13,21,21.40
2008,05,25,13,22,21.40
2008,05,25,13,23,21.30
2008,05,25,13,24,21.20
2008,05,25,13,25,21.10
2008,05,25,13,26,21.10
2008,05,25,13,27,21.10
2008,05,25,13,28,21.10
2008,05,25,13,29,21.20
2008,05,25,13,30,21.30
2008,05,25,13,31,21.40
2008,05,25,13,32,21.50
2008,05,25,13,33,21.70
2008,05,25,13,34,21.80
2008,05,25,13,35,22.00
2008,05,25,13,36,22.20
2008,05,25,13,37,22.30
2008,05,25,13,38,22.50
2008,05,25,13,39,22.60
2008,05,25,13,40,22.70
2008,05,25,13,41,22.70
2008,05,25,13,42,22.80
2008,05,25,13,43,22.90
2008,05,25,13,44,22.90
2008,05,25,13,45,22.90
2008,05,25,13,46,22.90
2008,05,25,13,47,22.80
2008,05,25,13,48,22.80
2008,05,25,13,49,22.80
2008,05,25,13,50,22.80
2008,05,25,13,51,22.90
2008,05,25,13,52,22.90
2008,05,25,13,53,22.90
2008,05,25,13,54,22.80
2008,05,25,13,55,22.80
2008,05,25,13,56,22.80
2008,05,25,13,57,22.90
2008,05,25,13,58,22.80
2008,05,25,13,59,22.80
2008,05,25,14,00,22.70
2008,05,25,14,01,22.60
2008,05,25,14,02,22.60
2008,05,25,14,03,22.50
2008,05,25,14,04,22.30
2008,05,25,14,05,22.20
2008,05,25,14,06,22.20
2008,05,25,14,07,22.20
2008,05,25,14,08,22.10
2008,05,25,14,09,22.10
2008,05,25,14,10,22.10
2008,05,25,14,11,22.20
2008,05,25,14,12,22.30
2008,05,25,14,13,22.50
2008,05,25,14,14,22.60
2008,05,25,14,15,22.80
2008,05,25,14,16,22.90
2008,05,25,14,17,23.00
2008,05,25,14,18,23.00
2008,05,25,14,19,23.10
2008,05,25,14,20,23.10
2008,05,25,14,21,23.10
2008,05,25,14,22,23.10
2008,05,25,14,23,23.10
2008,05,25,14,24,23.20
2008,05,25,14,25,23.20
2008,05,25,14,26,23.30
2008,05,25,14,27,23.40
2008,05,25,14,28,23.50
2008,05,25,14,29,23.50
2008,05,25,14,30,23.60
2008,05,25,14,31,23.50
2008,05,25,14,32,23.50
2008,05,25,14,33,23.50
2008,05,25,14,34,23.40
2008,05,25,14,35,23.30
2008,05,25,14,36,23.20
2008,05,25,14,37,23.10
2008,05,25,14,38,23.10
2008,05,25,14,39,23.00
2008,05,25,14,40,22.90
2008,05,25,14,41,22.90
2008,05,25,14,42,23.00
2008,05,25,14,43,23.00
2008,05,25,14,44,23.00
2008,05,25,14,45,23.00
2008,05,25,14,46,22.90
2008,05,25,14,47,22.70
2008,05,25,14,48,22.60
2008,05,25,14,49,22.60
2008,05,25,14,50,22.50
2008,05,25,14,51,22.40
2008,05,25,14,52,22.40
2008,05,25,14,53,22.40
2008,05,25,14,54,22.40
2008,05,25,14,55,22.50
2008,05,25,14,56,22.60
2008,05,25,14,57,22.70
2008,05,25,14,58,22.90
2008,05,25,14,59,23.10
2008,05,25,15,00,23.10
2008,05,25,15,01,23.20
2008,05,25,15,02,23.00
2008,05,25,15,03,22.90
2008,05,25,15,04,22.80
2008,05,25,15,05,22.80
2008,05,25,15,06,22.90
2008,05,25,15,07,23.00
2008,05,25,15,08,23.10
2008,05,25,15,09,23.10
2008,05,25,15,10,23.20
2008,05,25,15,11,23.20
2008,05,25,15,12,23.10
2008,05,25,15,13,23.00
2008,05,25,15,14,22.90
2008,05,25,15,15,22.70
2008,05,25,15,16,22.30
2008,05,25,15,17,22.10
2008,05,25,15,18,21.90
2008,05,25,15,19,21.80
2008,05,25,15,20,21.60
2008,05,25,15,21,21.40
2008,05,25,15,22,21.30
2008,05,25,15,23,21.20
2008,05,25,15,24,21.10
2008,05,25,15,25,21.00
2008,05,25,15,26,20.90
2008,05,25,15,27,20.80
2008,05,25,15,28,20.70
2008,05,25,15,29,20.60
2008,05,25,15,30,20.50
2008,05,25,15,31,20.30
2008,05,25,15,32,20.30
2008,05,25,15,33,20.20
2008,05,25,15,34,20.10
2008,05,25,15,35,20.10
2008,05,25,15,36,20.10
2008,05,25,15,37,20.00
2008,05,25,15,38,20.00
2008,05,25,15,39,20.00
2008,05,25,15,40,19.90
2008,05,25,15,41,19.90
2008,05,25,15,42,19.80
2008,05,25,15,43,19.70
2008,05,25,15,44,19.70
2008,05,25,15,45,19.60
2008,05,25,15,46,19.50
2008,05,25,15,47,19.50
2008,05,25,15,48,19.40
2008,05,25,15,49,19.40
2008,05,25,15,50,19.40
2008,05,25,15,51,19.30
2008,05,25,15,52,19.30
2008,05,25,15,53,19.30
2008,05,25,15,54,19.30
2008,05,25,15,55,19.30
2008,05,25,15,56,19.40
2008,05,25,15,57,19.40
2008,05,25,15,58,19.40
2008,05,25,15,59,19.40
2008,05,25,16,00,19.50
2008,05,25,16,01,19.50
2008,05,25,16,02,19.50
2008,05,25,16,03,19.50
2008,05,25,16,04,19.40
2008,05,25,16,05,19.40
2008,05,25,16,06,19.40
2008,05,25,16,07,19.40
2008,05,25,16,08,19.40
2008,05,25,16,09,19.40
2008,05,25,16,10,19.50
2008,05,25,16,11,19.50
2008,05,25,16,12,19.60
2008,05,25,16,13,19.60
2008,05,25,16,14,19.70
2008,05,25,16,15,19.70
2008,05,25,16,16,19.80
2008,05,25,16,17,19.80
2008,05,25,16,18,19.80
2008,05,25,16,19,19.80
2008,05,25,16,20,19.90
2008,05,25,16,21,19.90
2008,05,25,16,22,19.90
2008,05,25,16,23,20.00
2008,05,25,16,24,20.00
2008,05,25,16,25,20.00
2008,05,25,16,26,20.00
2008,05,25,16,27,19.90
2008,05,25,16,28,19.80
2008,05,25,16,29,19.70
2008,05,25,16,30,19.70
2008,05,25,16,31,19.70
2008,05,25,16,32,19.70
2008,05,25,16,33,19.70
2008,05,25,16,34,19.70
2008,05,25,16,35,19.80
2008,05,25,16,36,19.90
2008,05,25,16,37,20.00
2008,05,25,16,38,20.00
2008,05,25,16,39,20.10
2008,05,25,16,40,20.20
2008,05,25,16,41,20.30
2008,05,25,16,42,20.30
2008,05,25,16,43,20.30
2008,05,25,16,44,20.40
2008,05,25,16,45,20.40
2008,05,25,16,46,20.40
2008,05,25,16,47,20.40
2008,05,25,16,48,20.50
2008,05,25,16,49,20.50
2008,05,25,16,50,20.50
2008,05,25,16,51,20.50
2008,05,25,16,52,20.50
2008,05,25,16,53,20.50
2008,05,25,16,54,20.50
2008,05,25,16,55,20.50
2008,05,25,16,56,20.60
2008,05,25,16,57,20.60
2008,05,25,16,58,20.70
2008,05,25,16,59,20.80
2008,05,25,17,00,20.90
2008,05,25,17,01,21.00
2008,05,25,17,02,21.10
2008,05,25,17,03,21.10
2008,05,25,17,04,21.20
2008,05,25,17,05,21.20
2008,05,25,17,06,21.30
2008,05,25,17,07,21.40
2008,05,25,17,08,21.50
2008,05,25,17,09,21.60
2008,05,25,17,10,21.70
2008,05,25,17,11,21.70
2008,05,25,17,12,21.80
2008,05,25,17,13,21.80
2008,05,25,17,14,21.90
2008,05,25,17,15,21.90
2008,05,25,17,16,21.80
2008,05,25,17,17,21.80
2008,05,25,17,18,21.80
2008,05,25,17,19,21.80